Wetbulb
49.69 45.71 44.13 46.50 48.42 48.68 50.05 49.91 49.31 54.32 58.94 59.17 59.01 59.48 62.52 64.83 64.39 62.88 62.71 62.55 62.85 63.78 66.49 68.41 69.63 70.99 71.70 72.32 72.10 72.14 72.15 73.29 72.79 72.03 71.43 71.38 70.61 72.03 73.36 74.62 75.92 76.19 76.44 77.00
45.43 42.92 47.46 47.85 47.05 47.91 47.32 48.01 49.12 53.85 55.34 58.45 58.46 58.50 61.52 64.27 64.48 64.71 63.30 62.68 62.91 64.30 65.78 67.55 69.32 70.21 70.87 71.62 71.88 72.19 72.21 73.29 73.17 72.52 73.20 72.44 72.81 73.42 74.80 76.05 76.17 76.52 76.58 77.58
45.56 46.49 48.70 46.57 45.36 44.41 46.05 45.34 48.09 48.69 51.91 55.63 55.91 55.51 57.65 63.62 65.17 65.61 65.99 65.54 64.66 64.52 64.87 66.97 68.38 69.76 70.39 70.90 71.38 71.89 72.56 73.23 73.63 74.10 73.26 73.19 73.69 74.17 73.32 74.43 75.46 76.20 76.50 77.31
48.14 51.04 47.11 45.87 45.05 45.78 42.50 47.01 47.59 49.00 48.58 48.48 55.93 49.77 56.63 59.46 62.53 64.05 65.28 65.79 65.89 65.65 66.49 67.19 68.34 69.22 70.02 70.76 71.71 72.59 73.08 73.17 73.51 74.29 73.62 74.04 71.60 71.12 72.75 73.90 75.24 76.04 76.67 76.72
46.85 48.23 48.06 46.71 46.27 47.47 44.76 47.75 46.20 46.57 47.53 48.27 50.13 48.97 55.32 59.65 59.32 62.26 64.77 65.85 66.70 67.34 67.22 67.25 68.07 69.56 70.39 71.15 71.24 71.71 73.13 73.85 74.57 74.74 74.88 73.25 73.30 72.84 73.62 73.72 75.11 76.59 76.56 76.64
45.78 48.76 48.74 50.30 51.29 48.61 48.98 47.23 47.30 46.98 45.13 40.52 47.77 48.56 50.70 55.37 59.39 62.40 64.95 66.19 67.07 67.67 68.11 68.72 69.39 70.11 70.35 71.31 71.31 71.57 72.61 73.27 74.31 74.11 74.41 74.85 74.76 74.05 72.51 73.40 72.86 73.69 75.10 75.64
41.42 43.48 47.79 49.73 47.34 49.94 48.83 46.10 40.63 38.74 38.66 37.43 47.71 47.33 50.07 57.12 60.83 62.90 64.26 65.72 67.22 68.23 68.07 68.48 68.61 69.18 70.10 71.18 71.51 71.92 72.15 72.10 73.34 73.80 74.22 74.45 75.07 75.34 74.36 74.07 72.95 73.97 73.19 74.41
36.32 35.35 44.27 45.79 47.83 46.71 47.21 46.55 41.07 35.57 37.62 39.81 46.70 44.65 49.72 56.82 58.85 63.39 65.66 66.96 67.83 68.11 68.60 68.84 69.12 69.92 70.61 71.25 72.24 71.71 72.11 72.27 73.02 73.26 74.04 74.88 75.30 73.23 73.26 74.47 73.49 73.11 72.93 74.06
36.18 35.55 43.98 44.91 46.48 46.79 46.89 44.39 49.06 43.67 44.46 42.05 44.17 47.61 53.32 56.28 57.46 59.19 62.66 65.74 66.83 67.80 68.51 68.86 69.53 70.19 70.91 71.19 71.84 72.24 72.40 72.54 72.83 72.68 73.85 74.41 74.75 74.70 73.91 75.52 75.11 73.81 75.44 74.13
38.25 30.79 39.77 43.08 45.34 48.30 46.84 50.35 43.51 44.60 37.13 36.31 42.65 44.34 45.58 52.74 55.14 58.08 59.47 63.50 66.28 68.09 68.78 69.40 69.85 70.41 71.44 71.60 72.09 72.72 72.82 72.52 73.14 73.15 73.65 73.81 74.25 74.88 75.01 75.29 74.95 75.36 74.67 75.03
39.45 35.70 34.44 39.65 40.72 43.74 46.11 44.37 47.27 47.54 45.34 39.84 38.35 43.48 52.71 53.08 57.33 57.63 59.01 61.77 65.00 67.43 68.60 69.41 70.64 71.46 71.70 71.73 72.06 72.28 72.30 72.74 72.77 73.07 73.48 73.78 73.76 74.06 74.71 74.19 74.55 75.54 75.17 75.44
40.54 35.90 30.43 33.96 40.42 43.48 42.86 41.41 46.37 43.89 42.63 45.74 44.57 44.40 53.73 55.62 56.89 58.60 59.42 60.80 62.96 66.72 68.50 69.71 70.36 70.76 71.30 71.87 72.24 72.04 72.46 72.16 72.69 73.30 73.42 73.37 73.89 74.25 73.37 74.26 74.42 75.51 75.46 75.67
40.50 34.30 28.41 31.63 38.32 42.58 40.30 43.30 44.10 47.42 48.26 45.58 41.91 44.27 55.09 55.66 56.13 57.40 59.31 61.48 63.62 65.94 67.83 69.01 69.54 70.15 71.51 71.88 72.24 72.36 72.46 72.04 72.49 73.36 72.60 73.09 73.34 73.40 74.13 74.64 74.91 75.53 75.61 75.68
42.11 35.83 31.89 27.99 33.05 38.69 36.21 40.48 41.80 43.71 43.85 45.26 46.83 47.67 51.98 54.92 54.59 56.56 57.24 57.74 58.80 63.79 66.73 68.04 68.15 69.53 71.01 71.81 72.28 72.59 72.48 72.66 72.95 72.65 72.73 73.18 73.73 74.06 74.28 75.24 75.60 74.93 75.98 75.83
40.11 31.77 34.11 35.05 36.17 35.65 35.70 36.16 38.01 37.91 43.67 45.43 48.53 49.91 52.66 55.66 57.15 58.11 58.77 58.54 58.21 58.97 63.39 67.36 67.99 68.99 70.32 71.41 71.91 72.54 72.90 73.34 73.30 73.39 73.12 73.42 74.33 75.14 75.49 75.70 75.83 75.43 75.69 75.98
40.03 32.29 34.57 31.96 35.30 35.59 34.59 37.66 38.77 39.62 41.34 44.85 47.67 49.97 55.91 57.42 58.09 57.08 58.92 61.99 62.70 63.62 62.49 64.69 68.11 69.43 69.87 71.13 71.26 71.78 72.37 72.90 73.79 73.48 73.39 74.42 74.74 74.96 75.08 75.70 75.79 75.69 75.57 75.91
36.51 33.35 31.07 27.93 34.64 35.14 33.24 37.48 39.34 41.39 45.48 46.28 45.06 51.17 54.35 56.31 60.33 60.87 61.67 63.03 63.43 64.69 66.53 66.57 64.54 69.47 70.38 71.23 72.19 71.63 72.28 73.47 73.14 73.23 74.17 74.68 74.92 74.79 75.15 75.79 76.10 76.19 75.69 75.61
35.06 33.58 32.93 28.34 31.03 25.88 40.67 48.45 45.21 46.83 46.91 49.44 51.34 52.31 55.29 58.74 62.59 62.82 61.91 61.29 62.46 64.65 66.14 67.72 67.42 66.46 71.09 71.25 71.69 72.68 72.87 72.99 73.06 73.28 73.89 74.73 74.87 74.71 75.42 75.56 75.43 75.96 76.12 76.18
39.41 35.14 30.31 27.21 29.23 33.58 42.66 45.23 46.14 47.48 43.47 47.79 48.74 52.43 56.25 60.64 63.70 63.01 60.97 59.94 62.15 64.25 65.58 68.93 69.72 64.69 71.17 71.61 72.75 72.87 72.96 73.12 73.12 73.08 73.57 74.59 75.05 75.00 75.29 74.95 75.21 75.39 75.05 74.96
38.37 38.02 32.12 29.54 27.38 29.00 40.05 44.78 48.42 49.01 42.50 46.13 48.88 49.91 55.52 60.33 57.85 58.38 57.84 59.09 63.70 66.34 69.79 68.92 67.90 66.70 70.98 72.05 72.29 72.49 72.48 73.04 72.82 73.76 74.25 75.34 75.81 75.50 75.57 75.96 76.08 76.45 75.86 74.95
32.31 32.48 28.45 29.04 27.91 31.14 42.13 46.36 48.22 41.96 41.11 45.16 46.82 48.39 55.15 54.36 55.05 56.25 58.66 59.48 62.70 64.94 68.56 69.61 69.92 70.75 71.56 72.66 72.58 72.19 73.12 73.10 74.10 74.58 75.02 76.00 76.33 76.26 76.59 76.77 76.98 76.15 75.67 76.14
30.83 30.12 29.24 30.60 28.40 26.71 42.81 45.52 41.68 44.11 45.51 46.16 46.91 47.81 53.68 53.29 53.02 53.83 54.83 55.98 59.35 63.37 66.43 70.29 69.92 70.62 72.02 72.71 72.72 72.46 72.90 75.28 76.17 76.41 75.96 76.32 76.49 75.53 75.58 76.56 76.27 76.26 76.25 75.66
32.28 33.22 32.69 33.38 33.22 38.05 43.58 44.04 47.11 47.26 45.21 45.42 45.62 47.49 51.30 51.31 51.27 52.22 51.65 52.81 55.39 60.47 65.82 68.17 70.29 70.85 71.86 72.13 73.28 72.41 73.05 75.23 75.64 76.17 76.21 76.08 76.54 76.17 77.13 76.25 75.98 74.92 75.72 74.94
36.77 39.11 34.44 35.32 38.21 40.49 43.53 45.43 47.27 46.64 45.65 46.93 47.84 47.72 49.06 50.25 51.78 51.45 52.14 52.42 53.09 56.06 62.88 67.16 68.58 69.14 70.09 72.31 73.47 73.47 74.81 74.18 74.60 75.18 75.69 76.11 75.92 75.52 76.45 75.75 75.75 75.49 75.25 74.83
37.04 38.47 35.50 36.81 39.35 41.20 43.41 44.51 46.35 46.73 47.34 46.90 47.56 48.36 48.01 49.06 50.60 52.22 52.61 53.04 54.37 54.66 56.25 64.14 66.40 67.72 68.39 70.82 70.95 71.63 73.03 75.12 73.78 73.67 74.05 74.33 74.58 74.56 75.44 76.50 72.84 75.75 76.97 73.26
39.28 37.26 34.65 34.62 40.33 41.02 42.15 46.00 47.79 46.05 45.85 46.69 46.74 46.95 48.73 48.84 50.34 52.42 53.16 55.00 55.57 55.52 56.00 58.37 62.99 66.78 67.55 68.41 68.73 69.39 69.79 71.54 74.00 75.24 74.23 73.07 73.25 73.10 74.39 69.90 64.59 47.83 48.16 46.79
MSLP
1009.67 1009.25 1007.72 1008.22 1008.76 1008.38 1007.84 1007.15 1006.14 1005.67 1004.94 1004.64 1004.41 1004.82 1005.79 1007.04 1008.14 1008.90 1009.68 1010.21 1010.68 1011.01 1011.86 1012.78 1013.38 1013.90 1014.50 1015.26 1015.99 1016.59 1016.91 1017.40 1018.15 1018.50 1018.70 1018.96 1018.98 1019.30 1019.48 1019.62 1019.90 1020.08 1020.29 1020.56
1009.79 1008.48 1008.36 1008.79 1009.08 1008.88 1008.34 1007.66 1006.71 1005.95 1005.62 1005.02 1004.40 1004.32 1004.98 1006.23 1006.64 1007.42 1008.09 1008.97 1009.58 1010.47 1011.21 1012.02 1012.65 1013.28 1013.94 1014.62 1015.32 1016.12 1016.59 1017.05 1017.67 1018.12 1018.38 1018.50 1018.76 1019.03 1019.12 1019.35 1019.65 1019.84 1020.08 1020.39
1008.52 1008.18 1008.09 1008.68 1008.75 1008.69 1008.22 1007.72 1007.21 1006.67 1006.05 1005.02 1004.46 1003.92 1004.24 1005.28 1006.20 1007.12 1007.80 1008.51 1009.27 1009.53 1010.11 1011.01 1011.77 1012.37 1013.22 1013.88 1014.68 1015.40 1016.08 1016.65 1017.12 1017.69 1018.20 1018.49 1018.70 1019.01 1019.21 1019.37 1019.46 1019.61 1019.94 1020.23
1008.60 1008.14 1008.22 1008.20 1007.85 1008.29 1007.64 1007.87 1007.82 1007.24 1006.63 1004.84 1004.60 1003.07 1003.09 1003.88 1004.92 1005.91 1006.68 1007.36 1007.85 1008.57 1009.36 1009.97 1010.73 1011.48 1012.06 1013.01 1013.94 1014.73 1015.46 1016.17 1016.74 1017.27 1017.71 1017.91 1017.95 1018.24 1018.54 1018.96 1019.09 1019.13 1019.70 1020.06
1008.13 1007.85 1007.74 1007.55 1007.52 1007.86 1007.32 1007.73 1007.67 1007.58 1007.03 1006.34 1004.82 1004.00 1002.05 1003.12 1003.60 1004.30 1005.05 1005.78 1006.55 1007.34 1008.09 1008.74 1009.43 1010.22 1011.16 1012.31 1013.15 1014.01 1014.90 1015.56 1016.14 1016.73 1017.03 1017.41 1017.64 1017.90 1018.41 1018.78 1019.12 1019.21 1019.46 1019.77
1009.26 1008.76 1007.78 1006.93 1006.94 1007.50 1007.46 1007.69 1007.52 1007.35 1006.93 1005.43 1004.37 1004.01 1001.38 1001.53 1002.09 1002.65 1003.50 1004.55 1005.38 1006.19 1007.00 1007.80 1008.82 1009.83 1010.53 1011.45 1012.42 1013.09 1013.96 1014.77 1015.46 1016.07 1016.57 1016.89 1017.10 1017.47 1017.98 1018.38 1018.73 1018.95 1019.20 1019.38
1010.26 1008.83 1008.07 1007.46 1007.08 1007.02 1007.21 1007.24 1006.64 1006.60 1005.64 1003.36 1003.58 1003.20 1001.57 1000.83 1001.14 1001.26 1001.87 1002.77 1003.76 1004.86 1005.89 1006.76 1007.73 1008.59 1009.47 1010.18 1011.22 1012.26 1012.99 1013.85 1014.66 1015.24 1015.79 1016.32 1016.67 1017.10 1017.42 1017.86 1018.21 1018.44 1018.70 1018.91
1011.49 1009.61 1009.04 1009.20 1007.34 1006.64 1006.41 1006.36 1005.13 1004.40 1003.52 1002.90 1003.06 1000.30 999.92 1000.58 1000.62 1000.81 1000.85 1001.42 1002.92 1003.90 1004.79 1005.57 1006.28 1007.20 1008.14 1008.96 1010.00 1011.10 1011.98 1012.71 1013.56 1014.32 1014.89 1015.55 1016.04 1016.43 1016.81 1017.25 1017.47 1017.90 1018.16 1018.38
1013.02 1011.61 1010.55 1010.04 1009.31 1008.41 1006.14 1005.36 1005.15 1004.41 1004.04 1002.73 1000.63 1000.43 1000.19 999.88 999.60 999.72 1000.18 1000.76 1001.51 1002.37 1003.19 1003.98 1004.99 1005.92 1006.79 1007.79 1008.65 1009.76 1010.87 1011.82 1012.61 1013.22 1014.05 1014.70 1015.30 1015.77 1016.06 1016.45 1017.02 1017.45 1017.85 1018.04
1014.80 1013.22 1011.78 1010.78 1009.74 1007.67 1006.64 1005.15 1005.33 1004.73 1003.04 1001.50 999.95 999.42 998.36 998.47 998.60 998.68 998.96 999.62 1000.23 1001.04 1002.04 1002.95 1003.77 1004.46 1005.30 1006.21 1007.46 1008.70 1009.79 1010.53 1011.36 1012.46 1013.16 1013.87 1014.37 1014.99 1015.49 1016.09 1016.38 1016.73 1017.20 1017.58
1015.65 1014.73 1012.60 1011.88 1010.16 1007.90 1006.62 1006.18 1004.68 1004.02 1002.81 1000.81 1000.14 998.55 998.00 997.59 997.48 997.74 998.23 998.51 999.01 999.82 1000.54 1001.34 1001.96 1002.83 1003.69 1004.99 1006.24 1007.16 1008.40 1009.49 1010.43 1011.35 1012.21 1012.88 1013.52 1014.06 1014.81 1015.35 1015.76 1016.18 1016.62 1017.00
1016.06 1015.70 1014.00 1012.18 1011.01 1009.86 1009.46 1007.89 1005.42 1003.79 1002.28 1001.46 1000.18 998.29 997.82 997.06 996.72 996.81 997.14 997.53 998.07 998.72 999.25 999.87 1000.61 1001.86 1002.83 1003.61 1004.64 1005.64 1006.80 1008.01 1008.95 1009.87 1011.02 1011.80 1012.57 1013.30 1013.86 1014.47 1014.98 1015.58 1015.96 1016.37
1016.38 1016.12 1014.51 1011.77 1009.76 1009.08 1008.88 1007.76 1007.17 1004.61 1003.05 1000.58 999.94 998.82 998.08 997.50 997.15 997.03 996.94 996.97 997.74 998.14 998.74 999.27 1000.30 1000.86 1001.56 1002.50 1003.41 1004.31 1005.39 1006.37 1007.52 1008.70 1009.80 1010.73 1011.51 1012.34 1012.86 1013.39 1014.10 1014.76 1015.22 1015.60
1016.51 1016.10 1015.18 1013.82 1011.78 1011.32 1010.50 1008.88 1007.94 1005.80 1002.50 1000.88 999.04 999.21 998.31 997.45 997.11 996.85 997.03 997.38 997.80 998.14 998.41 999.10 999.78 1000.10 1000.69 1001.50 1002.38 1003.22 1004.22 1005.36 1006.43 1007.55 1008.54 1009.51 1010.32 1010.95 1011.73 1012.45 1013.23 1013.86 1014.28 1014.80
1016.56 1015.87 1015.35 1014.65 1013.66 1012.55 1011.32 1010.00 1008.44 1006.81 1003.64 1000.56 999.84 998.61 998.20 997.81 997.18 997.32 997.34 997.33 997.79 998.02 998.23 998.46 998.57 999.14 999.87 1000.68 1001.66 1002.68 1003.72 1004.67 1005.44 1006.54 1007.36 1008.11 1009.09 1010.03 1010.86 1011.67 1012.31 1012.98 1013.48 1013.91
1016.36 1015.71 1015.48 1014.46 1013.20 1012.28 1010.37 1008.89 1007.73 1006.40 1004.26 1001.95 1000.42 998.82 998.58 998.52 998.13 998.03 998.24 998.54 998.34 998.36 998.34 998.29 998.36 998.51 998.98 999.52 1000.29 1001.27 1002.44 1003.48 1004.66 1005.62 1006.30 1007.30 1008.28 1009.16 1009.92 1010.70 1011.42 1012.20 1012.72 1013.11
1015.98 1016.28 1016.03 1013.81 1012.73 1011.22 1007.99 1005.89 1005.94 1005.12 1003.29 1001.86 1000.01 999.50 1000.02 999.24 998.98 999.46 999.67 999.56 999.32 999.13 998.75 998.42 997.98 997.67 997.78 998.28 999.19 1000.24 1001.17 1002.59 1003.76 1004.71 1005.65 1006.52 1007.49 1008.24 1008.96 1009.76 1010.52 1011.08 1011.72 1012.35
1015.43 1016.16 1016.06 1013.78 1013.10 1009.47 1004.88 1003.36 1003.63 1003.85 1003.57 1002.16 1001.20 1001.16 1000.70 1000.03 1000.02 1000.40 1000.74 1000.66 1000.09 999.34 998.50 997.92 997.37 996.78 996.78 997.22 998.18 999.81 1001.03 1001.76 1002.90 1004.00 1004.83 1005.69 1006.59 1007.40 1008.28 1009.00 1009.59 1010.20 1010.83 1011.35
1014.60 1015.66 1015.51 1014.33 1012.16 1008.77 1005.18 1003.76 1002.98 1002.77 1003.99 1003.81 1002.76 1002.24 1001.14 1000.76 1000.55 1000.62 1001.38 1001.54 1000.81 999.75 998.51 997.22 996.44 995.74 995.77 996.49 997.38 998.89 1000.18 1001.20 1002.24 1003.15 1003.88 1004.67 1005.60 1006.51 1007.38 1008.08 1008.72 1009.44 1010.13 1010.65
1014.21 1015.11 1015.65 1014.45 1012.36 1008.31 1005.69 1005.12 1004.69 1004.03 1004.15 1004.84 1004.04 1003.07 1001.65 1000.81 1000.95 1001.78 1002.19 1001.63 1000.53 999.29 997.70 996.29 995.17 994.55 995.02 995.88 997.00 998.18 999.38 1000.15 1000.89 1001.78 1002.72 1003.90 1004.79 1005.53 1006.27 1007.02 1007.75 1008.41 1009.13 1009.61
1014.11 1014.93 1014.71 1014.30 1012.89 1009.91 1007.09 1005.62 1004.75 1004.43 1006.29 1005.87 1005.34 1004.40 1002.93 1002.59 1003.36 1003.29 1002.56 1001.64 1000.44 998.89 996.96 995.08 994.18 994.24 994.76 995.47 996.51 997.72 998.81 999.13 999.90 1001.43 1002.43 1003.32 1004.01 1004.70 1005.34 1006.08 1006.86 1007.62 1008.32 1008.64
1013.93 1014.32 1013.61 1013.69 1012.86 1010.83 1008.20 1006.10 1005.07 1006.50 1006.68 1006.51 1006.04 1005.26 1004.30 1004.26 1004.13 1003.51 1002.73 1001.68 1000.65 999.47 997.71 996.07 995.48 995.15 995.27 995.74 996.53 997.51 998.33 999.14 1000.10 1001.00 1001.82 1002.66 1003.39 1004.06 1004.67 1005.42 1006.18 1006.91 1007.45 1007.95
1013.81 1013.76 1013.07 1012.85 1012.03 1010.38 1009.21 1007.60 1007.36 1007.37 1007.27 1007.12 1006.55 1005.99 1005.45 1004.92 1004.18 1003.77 1003.25 1002.60 1001.55 1000.28 998.93 998.03 997.08 996.82 996.65 997.00 997.32 997.95 998.70 999.23 999.88 1000.60 1001.20 1001.94 1002.78 1003.46 1004.02 1004.85 1005.55 1006.23 1006.69 1006.90
1013.67 1013.17 1012.89 1012.33 1011.28 1010.29 1008.92 1008.62 1008.11 1007.85 1007.82 1007.63 1007.28 1006.81 1006.31 1005.60 1004.89 1004.67 1003.94 1003.17 1002.29 1001.36 1000.26 999.36 998.32 997.92 998.12 998.41 998.97 998.91 999.45 999.34 1000.04 1000.10 1000.57 1001.26 1001.90 1002.66 1003.43 1004.32 1004.98 1005.32 1005.45 1005.91
1014.42 1013.76 1013.21 1012.24 1011.00 1009.42 1009.03 1009.21 1008.84 1008.52 1008.25 1007.93 1007.68 1007.43 1007.01 1006.36 1006.01 1005.29 1004.65 1003.85 1003.40 1002.59 1001.52 1000.60 1000.00 999.59 999.52 999.56 999.70 1000.11 999.86 999.89 999.73 1000.39 1000.28 1000.68 1001.16 1001.92 1002.66 1003.62 1004.74 1004.75 1004.54 1005.01
1014.59 1014.16 1013.73 1012.95 1012.42 1011.71 1010.35 1009.66 1009.39 1009.03 1008.85 1008.64 1008.26 1007.69 1007.52 1007.15 1006.50 1005.83 1005.02 1004.64 1003.84 1003.06 1002.68 1001.84 1001.18 1000.84 1000.93 1000.85 1001.01 1001.19 1001.07 1000.67 1000.60 1000.54 1000.74 1001.14 1001.39 1001.94 1002.22 1003.42 1004.84 1005.84 1006.00 1006.01
Wind_Speed
6 10 21 19 12 13 3 6 12 7 6 10 15 13 11 14 13 15 18 20 22 24 23 21 20 20 19 17 17 16 16 14 10 9 9 7 7 6 5 5 5 6 6 6
6 17 14 10 13 12 18 12 8 7 5 9 9 16 11 17 20 20 22 22 24 22 23 22 22 20 20 19 19 17 16 15 12 9 8 5 6 5 3 3 5 6 8 8
13 2 15 13 13 16 17 19 14 7 8 12 6 14 12 13 14 15 17 18 20 23 25 24 23 23 21 21 20 17 16 15 14 12 8 5 5 2 4 4 4 6 8 8
11 16 8 14 18 17 19 15 17 15 8 8 10 12 16 14 17 19 19 20 22 23 23 23 25 25 24 21 19 18 17 16 15 15 11 12 9 8 7 6 5 5 9 9
7 9 15 18 16 15 15 8 16 18 17 13 13 9 16 8 16 19 22 22 23 23 24 26 27 26 24 21 19 18 16 15 15 15 14 13 11 9 7 7 7 5 7 9
7 6 5 10 16 17 4 11 10 13 14 19 22 15 15 16 16 19 19 22 23 24 25 24 24 22 22 21 20 19 18 17 16 16 16 15 14 11 9 8 8 7 6 7
4 6 4 12 9 11 16 11 6 9 11 16 19 19 17 13 16 17 20 24 26 24 25 24 25 23 22 23 21 18 19 18 17 18 17 17 15 14 14 12 10 10 9 8
2 8 1 9 15 11 16 18 8 14 10 12 16 16 15 23 20 16 17 19 19 23 23 24 25 23 22 23 22 21 21 20 19 18 18 16 16 12 12 13 11 10 9 9
2 7 6 9 9 8 15 21 19 15 3 10 13 18 12 12 18 24 17 14 20 23 25 27 26 25 23 22 23 22 21 20 20 21 17 17 15 15 13 14 12 10 9 8
3 8 2 8 8 14 15 12 18 13 18 19 7 19 12 22 17 18 22 17 18 21 23 22 24 25 23 24 22 22 21 22 21 19 17 15 16 16 14 12 13 13 11 11
4 4 1 8 5 10 14 15 16 17 19 11 16 8 11 18 21 19 19 21 20 20 22 23 24 24 25 23 23 23 22 21 20 19 18 17 16 17 15 14 14 13 13 13
3 3 6 13 17 22 18 12 22 15 23 19 17 13 4 14 21 22 21 18 21 21 21 23 24 23 23 24 23 25 23 23 21 20 18 19 17 17 17 16 15 14 14 13
8 4 5 11 12 19 11 17 18 25 21 23 18 13 14 8 9 12 16 16 14 18 19 20 19 21 22 23 23 23 23 25 24 20 21 19 19 18 17 16 16 15 15 14
6 4 8 12 18 12 11 12 17 21 22 19 20 20 22 14 8 9 9 10 10 13 15 16 17 18 21 21 22 21 22 23 22 22 22 19 19 19 18 16 16 17 15 15
7 7 8 14 20 24 26 26 26 21 23 22 21 22 24 22 23 18 13 9 4 8 12 17 20 18 20 19 20 19 19 20 21 20 21 21 19 17 16 16 16 16 16 15
8 7 9 18 23 23 29 29 26 24 24 19 17 14 2 8 13 13 10 9 11 11 10 13 19 19 20 22 22 22 21 21 20 20 20 18 18 17 18 17 16 16 16 15
9 5 7 21 17 18 24 30 26 21 17 21 23 15 7 4 3 0 4 8 11 12 13 14 16 19 20 22 22 23 23 20 21 20 18 18 18 18 18 17 17 17 17 15
10 11 7 15 15 13 9 8 26 12 7 1 7 3 7 9 6 7 7 10 14 15 16 17 16 18 20 22 24 18 20 21 20 19 19 18 18 18 17 16 17 16 15 15
18 9 6 6 8 13 12 4 24 16 9 10 6 6 2 4 7 5 11 11 14 16 18 19 18 21 17 19 20 19 20 20 19 19 19 18 18 18 17 17 17 15 15 14
18 13 7 4 8 7 6 4 6 8 7 12 10 11 7 4 9 3 15 16 14 14 12 14 18 18 18 18 20 20 21 21 22 21 20 18 18 18 18 17 17 15 14 15
10 5 13 14 9 11 11 11 7 8 6 8 9 10 15 8 5 8 11 13 12 12 14 4 13 14 16 18 19 19 19 22 19 17 17 17 17 17 16 15 14 14 15 13
7 7 8 9 6 10 17 5 4 6 7 6 9 13 12 12 9 9 13 15 15 15 16 13 7 11 15 17 17 18 17 14 15 15 16 16 16 15 14 15 14 14 14 14
2 3 2 2 1 14 5 14 11 8 7 10 11 14 12 11 13 15 14 15 15 17 15 15 13 14 11 8 8 13 8 14 17 16 16 16 16 15 13 15 14 13 14 12
2 5 2 4 4 12 6 11 13 12 9 9 11 11 15 13 13 12 13 15 16 17 15 16 18 19 17 14 11 9 5 9 13 15 15 14 15 15 14 13 12 12 12 12
4 7 7 4 8 12 12 13 15 14 11 12 12 11 13 15 14 12 13 15 13 14 17 16 16 16 17 15 15 12 10 3 9 12 12 13 13 15 14 11 7 11 10 9
9 7 5 4 12 7 10 14 14 15 15 12 13 15 13 13 14 16 14 15 14 16 16 16 18 16 15 14 14 13 11 8 4 5 6 6 7 10 10 10 7 14 9 5
Wind_Direction
174 201 213 207 212 227 286 252 241 216 222 211 223 240 202 180 190 186 187 187 191 195 189 192 196 196 195 196 194 198 194 192 186 188 184 195 205 211 229 226 213 198 189 187
176 231 224 235 208 224 244 260 268 263 276 232 213 233 212 192 195 197 189 192 194 193 191 195 197 198 200 197 198 197 200 190 191 192 188 192 188 206 222 218 190 190 186 182
208 195 205 204 204 217 231 240 241 280 338 250 255 243 218 207 210 203 206 200 200 199 193 194 198 200 201 200 198 197 197 194 192 196 184 162 158 156 192 198 192 190 190 188
224 235 191 215 223 214 232 227 244 255 294 243 218 248 221 215 206 206 204 201 203 202 202 197 198 201 202 202 197 197 194 195 195 188 190 191 199 197 201 202 204 185 188 192
189 199 209 225 225 218 239 223 226 238 249 274 244 246 239 202 215 210 211 207 206 202 201 202 203 202 201 197 197 197 194 195 197 192 194 194 202 204 197 198 205 206 191 202
263 309 270 220 217 198 211 225 239 235 237 240 238 240 237 216 216 217 211 211 209 203 204 205 205 201 202 198 196 194 191 196 194 193 196 198 200 198 197 197 204 207 200 200
323 243 222 228 197 197 211 204 199 211 211 237 225 231 238 228 218 223 210 209 209 202 201 200 200 200 199 197 195 193 190 197 195 198 198 202 203 200 199 195 207 209 211 207
330 208 304 359 242 212 208 204 211 212 228 232 212 234 222 225 241 233 224 218 202 203 203 204 199 197 196 194 194 192 192 196 195 199 200 203 206 207 212 209 213 215 223 220
289 248 319 324 316 306 205 214 215 262 257 256 226 233 269 230 234 227 232 205 199 201 203 202 199 198 195 195 193 194 193 197 198 200 201 202 203 209 212 211 207 213 215 219
151 285 320 341 322 234 238 210 206 223 243 238 212 224 230 210 227 223 222 212 206 203 204 204 201 199 197 196 194 192 195 195 197 202 201 205 202 204 209 207 210 207 207 212
190 241 248 317 237 264 221 230 220 224 236 239 241 232 220 229 210 217 220 222 213 205 203 203 203 201 198 195 192 195 194 194 195 197 201 202 206 204 203 208 211 207 200 203
184 174 281 278 275 272 277 283 246 226 228 235 266 234 147 227 217 216 220 226 219 214 207 206 204 199 199 197 193 195 195 196 196 196 196 201 200 204 202 206 206 204 203 204
172 182 292 292 236 231 227 244 243 252 238 231 231 218 261 272 236 242 242 221 213 212 216 210 199 197 198 196 196 195 194 199 197 193 195 199 201 201 205 202 203 201 203 206
182 216 245 262 293 324 301 286 297 272 226 236 230 233 236 247 273 269 244 239 231 216 216 208 204 201 200 196 197 196 194 196 195 194 196 197 199 199 203 200 199 200 201 204
185 240 242 260 271 282 276 274 275 271 260 228 232 227 232 239 257 254 270 286 255 235 221 205 200 196 196 194 194 194 192 193 192 191 193 196 197 199 200 197 198 201 201 207
178 254 294 275 277 269 265 258 256 254 252 252 254 241 312 266 266 261 268 283 281 275 258 229 215 202 195 194 189 189 189 189 185 189 195 192 191 192 197 197 197 197 206 208
184 219 248 265 288 287 256 241 236 242 230 216 217 234 310 264 215 257 305 296 287 281 277 261 236 210 199 196 187 189 187 180 186 189 189 189 189 192 196 197 196 199 204 207
202 201 238 275 288 241 236 237 197 198 101 118 165 304 284 265 137 98 26 329 303 294 286 269 254 230 207 199 195 183 181 180 182 186 187 186 188 192 194 196 198 200 203 206
216 182 239 257 268 297 142 106 153 168 83 36 38 344 257 201 189 207 17 336 302 288 277 270 255 233 207 193 180 175 178 177 178 187 189 187 187 189 190 195 198 199 203 208
195 198 210 229 265 262 101 320 248 222 95 14 16 9 3 216 208 26 335 317 316 307 285 260 238 205 183 181 173 171 177 177 185 187 188 185 187 189 191 193 195 195 199 207
167 172 218 236 241 270 340 297 227 214 86 348 8 11 48 69 31 305 336 348 346 344 342 296 189 169 169 165 164 171 178 189 187 180 182 184 188 190 191 192 194 195 201 209
162 208 203 213 234 249 323 196 122 95 55 15 16 17 57 60 50 37 22 8 3 10 16 36 101 144 156 160 163 173 184 173 173 174 179 184 187 191 192 191 190 196 200 207
185 275 278 223 272 281 335 63 69 54 39 8 13 18 20 44 37 32 26 15 9 14 32 44 71 79 84 137 160 166 163 165 172 177 181 183 185 190 187 192 193 196 199 209
327 342 297 271 229 327 27 28 36 25 14 2 7 17 24 21 26 27 29 24 20 17 14 36 55 61 62 64 80 87 161 175 179 179 180 181 183 184 190 193 198 203 201 205
331 321 303 258 337 343 356 4 4 5 11 5 0 5 18 14 11 18 31 27 20 19 17 26 36 49 52 51 49 44 43 140 186 197 190 187 187 184 185 191 210 206 208 214
358 350 356 335 331 306 295 329 354 5 1 1 1 350 1 3 359 7 18 16 16 19 16 20 26 32 40 41 40 28 19 28 70 161 186 205 201 189 181 168 139 52 19 3